TimeCDT,TemperatureF,Dew PointF,Humidity,Sea Level PressureIn,VisibilityMPH,Wind Direction,Wind SpeedMPH,Gust SpeedMPH,PrecipitationIn,Events,Conditions,WindDirDegrees,DateUTC
12:15 AM,64.0,53.2,68,30.19,10.0,ENE,5.8,-,N/A,,Overcast,60,2012-10-11 05:15:00
12:35 AM,63.5,53.1,69,30.18,10.0,ENE,3.5,-,N/A,,Overcast,70,2012-10-11 05:35:00
12:55 AM,62.6,52.9,70,30.18,10.0,Calm,Calm,-,N/A,,Scattered Clouds,0,2012-10-11 05:55:00
1:15 AM,61.9,52.7,72,30.18,10.0,Calm,Calm,-,N/A,,Clear,0,2012-10-11 06:15:00
1:35 AM,61.7,52.0,70,30.18,10.0,Calm,Calm,-,N/A,,Clear,0,2012-10-11 06:35:00
1:55 AM,60.8,52.3,74,30.17,10.0,Calm,Calm,-,N/A,,Clear,0,2012-10-11 06:55:00
2:15 AM,60.3,52.3,75,30.17,10.0,Calm,Calm,-,N/A,,Clear,0,2012-10-11 07:15:00
2:35 AM,59.4,53.1,80,30.17,10.0,Calm,Calm,-,N/A,,Clear,0,2012-10-11 07:35:00
2:55 AM,59.7,55.6,86,30.17,10.0,Calm,Calm,-,N/A,,Mostly Cloudy,0,2012-10-11 07:55:00
3:15 AM,59.9,52.7,77,30.17,10.0,Calm,Calm,-,N/A,,Scattered Clouds,0,2012-10-11 08:15:00
3:35 AM,59.0,53.2,81,30.17,10.0,Calm,Calm,-,N/A,,Clear,0,2012-10-11 08:35:00
3:55 AM,58.5,53.8,84,30.17,10.0,Calm,Calm,-,N/A,,Scattered Clouds,0,2012-10-11 08:55:00
4:15 AM,59.9,53.2,79,30.17,10.0,Calm,Calm,-,N/A,,Mostly Cloudy,0,2012-10-11 09:15:00
4:35 AM,59.9,53.8,80,30.17,10.0,Calm,Calm,-,N/A,,Mostly Cloudy,0,2012-10-11 09:35:00
4:55 AM,59.4,53.6,81,30.17,10.0,Calm,Calm,-,N/A,,Scattered Clouds,0,2012-10-11 09:55:00
5:35 AM,59.4,54.7,84,30.19,10.0,Calm,Calm,-,N/A,,Overcast,0,2012-10-11 10:35:00
5:55 AM,59.9,54.9,83,30.20,10.0,Calm,Calm,-,N/A,,Overcast,0,2012-10-11 10:55:00
6:15 AM,60.4,55.4,83,30.20,10.0,Calm,Calm,-,N/A,,Overcast,0,2012-10-11 11:15:00
6:35 AM,60.8,55.8,83,30.20,10.0,Calm,Calm,-,N/A,,Overcast,0,2012-10-11 11:35:00
6:55 AM,60.4,56.3,86,30.21,10.0,Calm,Calm,-,N/A,,Overcast,0,2012-10-11 11:55:00
7:35 AM,60.3,59.5,97,30.21,10.0,Calm,Calm,-,N/A,,Mostly Cloudy,0,2012-10-11 12:35:00
7:55 AM,61.5,58.5,90,30.22,10.0,Calm,Calm,-,N/A,,Overcast,0,2012-10-11 12:55:00
8:35 AM,63.7,59.7,87,30.22,10.0,Calm,Calm,-,N/A,,Overcast,0,2012-10-11 13:35:00
8:55 AM,65.3,60.3,84,30.22,10.0,Calm,Calm,-,N/A,,Overcast,0,2012-10-11 13:55:00
9:35 AM,69.3,62.2,78,30.23,10.0,ESE,4.6,-,N/A,,Overcast,120,2012-10-11 14:35:00
9:55 AM,70.5,63.1,77,30.24,10.0,Calm,Calm,-,N/A,,Overcast,0,2012-10-11 14:55:00
10:15 AM,72.7,64.0,74,30.24,10.0,SSE,3.5,-,N/A,,Scattered Clouds,160,2012-10-11 15:15:00
10:35 AM,74.1,64.6,72,30.24,10.0,Calm,Calm,-,N/A,,Clear,0,2012-10-11 15:35:00
10:55 AM,75.9,65.7,70,30.23,10.0,Calm,Calm,-,N/A,,Clear,0,2012-10-11 15:55:00
11:15 AM,78.8,66.7,66,30.23,10.0,South,4.6,-,N/A,,Clear,190,2012-10-11 16:15:00
11:35 AM,80.1,67.6,66,30.22,10.0,SSW,5.8,-,N/A,,Clear,210,2012-10-11 16:35:00
11:55 AM,81.3,68.2,64,30.22,10.0,South,8.1,-,N/A,,Clear,180,2012-10-11 16:55:00
12:15 PM,82.6,67.6,60,30.21,10.0,SW,11.5,-,N/A,,Clear,220,2012-10-11 17:15:00
12:35 PM,84.0,68.0,58,30.20,10.0,SSW,9.2,-,N/A,,Clear,200,2012-10-11 17:35:00
12:55 PM,84.2,67.8,58,30.20,10.0,SSW,6.9,-,N/A,,Clear,200,2012-10-11 17:55:00
1:15 PM,85.3,67.8,56,30.19,10.0,SSW,8.1,-,N/A,,Clear,210,2012-10-11 18:15:00
1:35 PM,85.6,68.5,56,30.18,10.0,SSW,5.8,-,N/A,,Clear,210,2012-10-11 18:35:00
1:55 PM,86.4,68.5,55,30.18,10.0,SSW,3.5,-,N/A,,Clear,210,2012-10-11 18:55:00
2:15 PM,86.9,68.0,53,30.18,10.0,SW,4.6,-,N/A,,Clear,230,2012-10-11 19:15:00
2:35 PM,86.5,68.7,55,30.17,10.0,South,4.6,-,N/A,,Scattered Clouds,190,2012-10-11 19:35:00
2:55 PM,87.8,68.9,53,30.17,10.0,WSW,5.8,-,N/A,,Scattered Clouds,240,2012-10-11 19:55:00
3:15 PM,86.5,68.7,55,30.17,10.0,Calm,Calm,-,N/A,,Scattered Clouds,0,2012-10-11 20:15:00
3:35 PM,86.7,68.0,54,30.17,10.0,Calm,Calm,-,N/A,,Mostly Cloudy,0,2012-10-11 20:35:00
3:55 PM,88.2,68.4,52,30.16,10.0,Calm,Calm,-,N/A,,Scattered Clouds,0,2012-10-11 20:55:00
4:15 PM,87.8,68.0,52,30.16,10.0,Calm,Calm,-,N/A,,Scattered Clouds,0,2012-10-11 21:15:00
4:35 PM,86.0,68.5,56,30.15,10.0,Calm,Calm,-,N/A,,Scattered Clouds,0,2012-10-11 21:35:00
4:55 PM,86.9,68.5,54,30.15,10.0,Calm,Calm,-,N/A,,Scattered Clouds,0,2012-10-11 21:55:00
5:15 PM,86.2,68.5,55,30.15,10.0,Calm,Calm,-,N/A,,Scattered Clouds,0,2012-10-11 22:15:00
5:35 PM,85.1,68.9,58,30.15,10.0,Calm,Calm,-,N/A,,Clear,0,2012-10-11 22:35:00
6:35 PM,77.9,72.0,82,30.16,10.0,Calm,Calm,-,N/A,,Clear,0,2012-10-11 23:35:00
6:55 PM,-9999,-9999,N/A,30.16,10.0,Calm,Calm,-,N/A,,Clear,0,2012-10-11 23:55:00
7:15 PM,-9999,-9999,N/A,30.16,10.0,Calm,Calm,-,N/A,,Clear,0,2012-10-12 00:15:00
7:35 PM,-9999,-9999,N/A,30.16,10.0,Calm,Calm,-,N/A,,Clear,0,2012-10-12 00:35:00
8:15 PM,-9999,-9999,N/A,30.17,10.0,Calm,Calm,-,N/A,,Clear,0,2012-10-12 01:15:00
8:35 PM,-9999,-9999,N/A,30.17,7.0,Calm,Calm,-,N/A,,Clear,0,2012-10-12 01:35:00
8:55 PM,-9999,-9999,N/A,30.18,7.0,Calm,Calm,-,N/A,,Clear,0,2012-10-12 01:55:00
9:15 PM,-9999,-9999,N/A,30.19,7.0,Calm,Calm,-,N/A,,Clear,0,2012-10-12 02:15:00
10:15 PM,-9999,-9999,N/A,30.19,7.0,Calm,Calm,-,N/A,,Clear,0,2012-10-12 03:15:00
10:35 PM,-9999,-9999,N/A,30.19,10.0,Calm,Calm,-,N/A,,Clear,0,2012-10-12 03:35:00
11:15 PM,-9999,-9999,N/A,30.18,10.0,Calm,Calm,-,N/A,,Clear,0,2012-10-12 04:15:00
11:35 PM,-9999,-9999,N/A,30.19,7.0,Calm,Calm,-,N/A,,Clear,0,2012-10-12 04:35:00
11:55 PM,-9999,-9999,N/A,30.19,10.0,Calm,Calm,-,N/A,,Clear,0,2012-10-12 04:55:00